[[{"header":{"parameterUnit":"m.s-1","parameterCategory":1,"la1":30.2991,"la2":30.254,"lo1":-89.0895,"lo2":-89.0444,"dy":0.0017,"dx":0.0017,"nx":28,"ny":28,"refTime":"2025-03-10T09:00:00:Z","depth":0,"parameterNumber":2,"parameterNumberName":"U-component_of_WINDS"},"data":[0,0,0,0,0,0,0,0,0,0,0,0,0,0,0,0,0,0,0,0,0,0,0,0,0,0,0,0,0,0,0,0,0,0,0,0,0,0,0,0,0,0,0,0,0,0,0,0,0,0,0,0,0,0,0,0,0,0,6.3859,6.3861,0,6.4036,6.4038,6.404,6.3988,6.3985,6.3981,6.3978,6.4162,6.417,6.4178,0,0,0,0,0,0,0,0,0,0,0,0,0,6.3481,6.3488,6.3859,6.3861,6.3863,6.4035,6.4038,6.404,6.3989,6.3985,6.398,6.3976,6.4159,6.4169,6.4179,0,0,0,0,0,0,0,0,0,0,0,0,0,6.365,6.349,6.3858,6.3858,6.386,6.4035,6.4038,6.4041,6.399,6.3985,6.3979,6.3974,6.4156,6.4168,6.418,6.4367,0,0,6.4219,6.4224,0,0,0,0,0,0,0,0,6.3641,6.3664,6.3856,6.3859,6.3861,6.3984,6.3972,6.415,6.3991,6.3941,6.3978,6.3971,6.4108,6.4124,6.4169,6.4376,6.4383,6.422,6.4227,6.4233,6.4236,0,0,0,0,0,0,0,6.3629,6.3656,6.3929,6.3859,6.3862,6.3851,6.3869,6.4006,6.4053,6.3945,6.3941,6.3963,6.4108,6.4157,6.4173,6.4386,6.4219,6.423,6.4238,6.4243,6.4757,6.4763,0,0,0,0,0,0,6.3615,6.3647,6.3923,6.3934,6.3735,6.3862,6.3882,6.395,6.4051,6.4061,6.3967,6.396,6.4138,6.4158,6.4179,6.4406,6.4232,6.4244,6.4251,6.4751,6.4759,6.4765,0,0,0,0,0,0,6.3607,6.364,6.3916,6.379,6.3824,6.3874,6.3951,6.3957,6.4006,6.4068,6.4077,6.4009,6.4135,6.4162,6.4321,6.4411,6.425,6.4261,6.4744,6.4753,6.4762,6.4859,0,0,0,0,0,0,6.3596,6.3638,6.3708,6.3792,6.3831,6.4054,6.3957,6.3964,6.4027,6.4019,6.4109,6.4119,6.4133,6.4303,6.4333,6.4426,6.4271,6.4736,6.4748,6.4759,6.4848,6.4871,6.489,0,0,0,0,0,6.3583,6.3728,6.3712,6.3745,6.3919,6.4059,6.4082,6.4093,6.4034,6.4106,6.4147,6.4116,6.4396,6.4319,6.4353,6.4451,6.473,6.4745,6.4758,6.4839,6.4866,6.489,0,0,0,0,0,0,6.3655,6.3739,6.3722,6.3898,6.3972,6.405,6.4141,6.4122,6.4214,6.4203,6.4215,6.4236,6.4399,6.4441,6.4354,6.4638,6.4555,6.4576,6.4605,6.4631,6.4652,6.4639,6.4281,0,0,0,0,0,6.3691,6.3796,6.3865,6.4014,6.4052,6.409,6.4151,6.4154,6.4231,6.4262,6.4314,6.4391,6.4497,6.4566,6.4667,6.4854,6.4874,6.4938,6.4959,6.4976,6.4994,6.5099,6.5128,6.4811,6.4811,6.4811,0,0,6.3767,6.3826,6.3892,6.403,6.4087,6.4197,6.4117,6.4236,6.4318,6.4281,6.4434,6.4476,6.4563,6.4737,6.4817,6.4777,6.5087,6.4993,6.5006,6.5016,6.5116,6.5146,6.5173,6.482,6.4819,6.4817,0,0,6.3962,6.4017,6.4148,6.4207,6.4295,6.432,6.4351,6.4433,6.4459,6.4613,6.4588,6.4687,6.4868,6.4931,6.4987,6.5209,6.5185,6.5241,6.5351,6.5452,6.5477,6.5499,6.558,6.5609,6.5259,6.526,6.526,0,6.4046,6.421,6.4218,6.4341,6.4403,6.4373,6.4507,6.4564,6.4681,6.4726,6.4679,6.4907,6.4963,6.5153,6.5207,6.5253,6.5291,6.5231,6.5473,6.5495,6.5516,6.5593,6.5623,6.5266,6.5265,6.5265,6.5264,0,6.431,6.4424,6.4519,6.4632,6.4705,6.4833,6.4862,6.4935,6.4932,6.4962,6.5121,6.5188,6.5302,6.5347,6.5345,6.5538,6.5511,6.5469,6.5386,6.5553,6.5625,6.5655,6.5275,6.5273,6.5271,6.5269,0,0,6.4555,6.4671,6.4706,6.4758,6.4853,6.4942,6.5069,6.518,6.5244,6.5326,6.5434,6.5588,6.555,6.5614,6.5619,6.5708,6.5882,6.5655,6.5658,6.5696,6.6101,6.6133,6.6167,6.5866,6.5872,6.5876,6.6094,0,6.476,6.4982,6.4994,6.5197,6.5303,6.5277,6.5388,6.546,6.5492,6.5588,6.5624,6.5734,6.5675,6.5713,6.58,6.5842,6.5963,6.5826,6.5969,6.5974,6.5949,6.6204,6.6239,6.6441,6.6122,6.6127,6.613,0,6.5028,6.5118,6.5331,6.5412,6.5458,6.5557,6.5661,6.5752,6.5834,6.5851,6.5923,6.5916,6.6048,6.596,6.6144,6.6051,6.611,6.6139,6.6148,6.6162,6.6063,6.6228,6.6505,6.6536,6.6175,6.6171,6.6168,0,6.5188,6.5362,6.5512,6.5557,6.5655,6.5726,6.5771,6.5846,6.5913,6.6004,6.6048,6.6153,6.6212,6.6295,6.6317,6.625,6.6501,6.6414,6.6521,6.6521,6.6576,6.6572,6.6868,6.6612,6.6611,6.6611,6.661,0,6.5416,6.5548,6.5586,6.5678,6.5826,6.5839,6.5985,6.6025,6.6093,6.6195,6.6179,6.6275,6.6298,6.6399,6.6417,6.6568,6.6594,6.6613,6.6617,6.6616,6.6613,6.6655,6.6642,6.6619,6.6617,6.6615,6.6614,0,6.562,6.565,6.5813,6.5892,6.5916,6.6021,6.609,6.6181,6.621,6.6339,6.637,6.6419,6.6537,6.6567,6.6708,6.6721,6.6899,6.6889,6.6871,6.6872,6.6977,6.6967,6.7312,6.7358,6.707,6.7072,6.7075,0,6.5764,6.5865,6.5956,6.6022,6.6069,6.6176,6.6244,6.6262,6.6333,6.6434,6.6513,6.6629,6.6722,6.6913,6.6961,6.707,6.7063,6.7176,6.7079,6.7076,6.7067,6.7061,6.7072,6.7195,6.7198,6.7201,6.7203,0,6.6018,6.6028,6.6125,6.623,6.6311,6.6394,6.6473,6.6528,6.6557,6.6639,6.6759,6.6832,6.6976,6.7092,6.7202,6.7249,6.7233,6.7233,6.7263,6.7264,6.725,6.7261,6.6923,6.7225,6.7223,6.7221,6.722,6.7219,6.6198,6.6287,6.6365,6.6475,6.6536,6.6611,6.67,6.6741,6.6841,6.6959,6.6963,6.7095,6.7175,6.7321,6.7375,6.7479,6.7445,6.7489,6.75,6.7511,6.7521,6.7233,6.7499,6.7498,6.7497,6.7497,6.7497,0,6.6452,6.6501,6.6602,6.6713,6.68,6.6774,6.6861,6.6936,6.7052,6.7128,6.722,6.7359,6.7472,6.753,6.7642,6.7715,6.771,6.7744,6.774,6.7752,6.7544,6.7507,6.7746,6.7746,6.7746,6.7746,6.7746,6.7746,6.6595,6.6744,6.6764,6.6945,6.6993,6.7121,6.7173,6.7243,6.7303,6.7459,6.7552,6.7589,6.7658,6.7776,6.7879,6.7893,6.7936,6.7975,6.7986,6.7791,6.7766,6.7742,6.7707,6.7984,6.7984,6.8184,6.8186,6.8187]},{"header":{"parameterUnit":"m.s-1","parameterCategory":1,"la1":30.2991,"la2":30.254,"lo1":-89.0895,"lo2":-89.0444,"dy":0.0017,"dx":0.0017,"nx":28,"ny":28,"refTime":"2025-03-10T09:00:00:Z","depth":0,"parameterNumber":3,"parameterNumberName":"V-component_of_WINDS"},"data":[0,0,0,0,0,0,0,0,0,0,0,0,0,0,0,0,0,0,0,0,0,0,0,0,0,0,0,0,0,0,0,0,0,0,0,0,0,0,0,0,0,0,0,0,0,0,0,0,0,0,0,0,0,0,0,0,0,0,-3.1222,-3.1224,0,-3.1409,-3.1412,-3.1414,-3.1443,-3.1441,-3.144,-3.1438,-3.1634,-3.164,-3.1647,0,0,0,0,0,0,0,0,0,0,0,0,0,-3.0895,-3.0901,-3.1222,-3.1224,-3.1227,-3.1409,-3.1412,-3.1414,-3.1443,-3.1441,-3.1439,-3.1437,-3.1631,-3.1639,-3.1648,0,0,0,0,0,0,0,0,0,0,0,0,0,-3.1055,-3.0903,-3.1222,-3.1263,-3.1269,-3.1409,-3.1412,-3.1415,-3.1444,-3.1441,-3.1439,-3.1436,-3.1629,-3.1639,-3.1649,-3.1761,0,0,-3.168,-3.1684,0,0,0,0,0,0,0,0,-3.1046,-3.1067,-3.1255,-3.1261,-3.1267,-3.14,-3.1368,-3.1531,-3.1444,-3.1377,-3.1438,-3.1435,-3.1558,-3.1574,-3.1615,-3.1771,-3.1779,-3.1681,-3.1687,-3.1691,-3.1694,0,0,0,0,0,0,0,-3.1035,-3.1059,-3.1296,-3.1257,-3.1265,-3.1274,-3.1294,-3.1399,-3.148,-3.1383,-3.1386,-3.1407,-3.1561,-3.1605,-3.162,-3.1782,-3.168,-3.1689,-3.1696,-3.17,-3.2042,-3.2045,0,0,0,0,0,0,-3.1016,-3.105,-3.129,-3.1302,-3.1148,-3.1282,-3.1304,-3.136,-3.1479,-3.1494,-3.1409,-3.1408,-3.1589,-3.1608,-3.1627,-3.1768,-3.1691,-3.1701,-3.1706,-3.2039,-3.2043,-3.2046,0,0,0,0,0,0,-3.1009,-3.1037,-3.1283,-3.1177,-3.1209,-3.129,-3.1353,-3.1365,-3.1409,-3.1498,-3.1513,-3.1439,-3.1588,-3.1612,-3.1728,-3.1775,-3.1705,-3.1714,-3.2036,-3.2041,-3.2045,-3.2051,0,0,0,0,0,0,-3.0999,-3.1034,-3.1076,-3.1177,-3.1214,-3.138,-3.1355,-3.1371,-3.1426,-3.1426,-3.153,-3.1545,-3.1588,-3.1713,-3.1738,-3.1788,-3.1722,-3.2032,-3.2038,-3.2043,-3.2047,-3.2055,-3.2062,0,0,0,0,0,-3.0987,-3.1071,-3.1078,-3.1107,-3.1269,-3.1382,-3.1403,-3.145,-3.1429,-3.1474,-3.1532,-3.1542,-3.1766,-3.1724,-3.1753,-3.1807,-3.2029,-3.2036,-3.2043,-3.2043,-3.2053,-3.2062,0,0,0,0,0,0,-3.0975,-3.1085,-3.1094,-3.1213,-3.1288,-3.1387,-3.1444,-3.1458,-3.1542,-3.1538,-3.1594,-3.1617,-3.173,-3.178,-3.1732,-3.1923,-3.1896,-3.1909,-3.1887,-3.1897,-3.1904,-3.189,-3.1731,0,0,0,0,0,-3.0985,-3.1067,-3.1159,-3.1255,-3.1292,-3.1362,-3.1413,-3.1442,-3.1522,-3.1555,-3.1621,-3.17,-3.1788,-3.1845,-3.1931,-3.2054,-3.2078,-3.2105,-3.2113,-3.2119,-3.2129,-3.22,-3.2214,-3.2069,-3.2069,-3.2068,0,0,-3.1009,-3.1079,-3.1128,-3.1255,-3.1316,-3.1401,-3.1388,-3.1478,-3.1542,-3.1569,-3.1682,-3.1733,-3.1825,-3.1945,-3.2002,-3.199,-3.2175,-3.2127,-3.2131,-3.2139,-3.2208,-3.2222,-3.2234,-3.2073,-3.2072,-3.2072,0,0,-3.1096,-3.1156,-3.1243,-3.1305,-3.1398,-3.1444,-3.1465,-3.1562,-3.1597,-3.1711,-3.1734,-3.1812,-3.1962,-3.2027,-3.208,-3.2193,-3.2206,-3.222,-3.226,-3.2328,-3.2339,-3.235,-3.2392,-3.2406,-3.223,-3.223,-3.223,0,-3.1114,-3.1241,-3.1287,-3.1376,-3.1433,-3.1459,-3.155,-3.1608,-3.1725,-3.1764,-3.1749,-3.194,-3.2004,-3.214,-3.2168,-3.2209,-3.2237,-3.2208,-3.2333,-3.2345,-3.2355,-3.2396,-3.2411,-3.2231,-3.2231,-3.2231,-3.2231,0,-3.1259,-3.1347,-3.1407,-3.1518,-3.1581,-3.167,-3.1732,-3.179,-3.1814,-3.1862,-3.198,-3.2057,-3.216,-3.2195,-3.2219,-3.2336,-3.2326,-3.2322,-3.2296,-3.2369,-3.2408,-3.2424,-3.2233,-3.2232,-3.2232,-3.2232,0,0,-3.1343,-3.1478,-3.15,-3.1551,-3.1656,-3.1726,-3.1818,-3.1918,-3.1968,-3.2048,-3.2127,-3.2255,-3.2252,-3.2312,-3.2345,-3.2404,-3.2491,-3.2393,-3.2396,-3.241,-3.2626,-3.2629,-3.2646,-3.25,-3.2503,-3.2506,-3.2619,0,-3.1443,-3.1605,-3.1649,-3.1788,-3.1871,-3.1898,-3.1978,-3.2053,-3.21,-3.2179,-3.2233,-3.2323,-3.2311,-3.2348,-3.2408,-3.2467,-3.2535,-3.246,-3.2577,-3.258,-3.2553,-3.2667,-3.267,-3.2773,-3.2634,-3.2637,-3.2639,0,-3.158,-3.1662,-3.1808,-3.1904,-3.1941,-3.2011,-3.2108,-3.2182,-3.2268,-3.2298,-3.2366,-3.2393,-3.2492,-3.246,-3.2598,-3.2546,-3.2597,-3.2633,-3.2638,-3.2652,-3.2614,-3.2684,-3.2807,-3.2823,-3.2663,-3.2661,-3.2659,0,-3.1628,-3.1775,-3.1882,-3.1925,-3.2039,-3.2089,-3.2139,-3.2222,-3.2279,-3.2364,-3.2403,-3.2498,-3.255,-3.2625,-3.2678,-3.2649,-3.2812,-3.2784,-3.2842,-3.2841,-3.2876,-3.2873,-3.3009,-3.2906,-3.2906,-3.2906,-3.2906,0,-3.1736,-3.1824,-3.1905,-3.1971,-3.2072,-3.2124,-3.2223,-3.2274,-3.2348,-3.2426,-3.2456,-3.2529,-3.2594,-3.2677,-3.2719,-3.2828,-3.2851,-3.288,-3.2891,-3.2878,-3.2875,-3.2913,-3.2908,-3.291,-3.2909,-3.2908,-3.2908,0,-3.1807,-3.1864,-3.1982,-3.208,-3.2107,-3.2178,-3.2263,-3.2329,-3.2377,-3.2476,-3.2502,-3.2579,-3.2678,-3.2738,-3.2863,-3.2892,-3.3013,-3.302,-3.2983,-3.2988,-3.3044,-3.3038,-3.321,-3.3236,-3.3114,-3.3115,-3.3116,0,-3.1872,-3.1941,-3.2046,-3.2099,-3.215,-3.2236,-3.2295,-3.2349,-3.241,-3.2513,-3.2567,-3.2667,-3.2751,-3.2907,-3.2976,-3.3072,-3.3083,-3.3137,-3.3098,-3.3084,-3.3086,-3.3081,-3.3089,-3.3143,-3.3144,-3.3145,-3.3146,0,-3.1982,-3.2007,-3.209,-3.2184,-3.2253,-3.2329,-3.2406,-3.2449,-3.2516,-3.2583,-3.2684,-3.2748,-3.2876,-3.2976,-3.3078,-3.3132,-3.3152,-3.3157,-3.3176,-3.3165,-3.3141,-3.3156,-3.3002,-3.3153,-3.3153,-3.3152,-3.3152,-3.3151,-3.2054,-3.2116,-3.22,-3.2292,-3.2355,-3.2426,-3.2494,-3.2551,-3.2635,-3.2742,-3.277,-3.2876,-3.2962,-3.3101,-3.3158,-3.3243,-3.3235,-3.3262,-3.3269,-3.3275,-3.3277,-3.3127,-3.3262,-3.3261,-3.3261,-3.3261,-3.3261,0,-3.2167,-3.2222,-3.2306,-3.2412,-3.2484,-3.2494,-3.258,-3.2641,-3.2733,-3.2811,-3.2892,-3.3009,-3.3106,-3.3182,-3.3283,-3.3337,-3.3348,-3.3361,-3.3359,-3.3371,-3.3277,-3.3252,-3.3351,-3.3351,-3.3351,-3.3351,-3.335,-3.335,-3.2234,-3.2341,-3.2377,-3.2517,-3.2572,-3.2675,-3.2723,-3.279,-3.2853,-3.2981,-3.3062,-3.311,-3.3189,-3.3295,-3.3386,-3.3406,-3.3442,-3.3454,-3.3476,-3.3387,-3.3378,-3.3368,-3.3345,-3.3461,-3.3462,-3.3564,-3.3564,-3.3565]}]]